Change the Weather History Date:

Friday, April 4, 2014

  Actual Average Record
Temperature  
Mean Temperature 50 °F -  
Max Temperature 55 °F 56 °F 77 °F (1997)
Min Temperature 46 °F 40 °F 28 °F (2013)
Degree Days  
Heating Degree Days 14    
Moisture  
Dew Point 43 °F    
Average Humidity 82    
Maximum Humidity 100    
Minimum Humidity 62    
Precipitation  
Precipitation 0.00 in - - ()
Sea Level Pressure  
Sea Level Pressure 29.91 in    
Wind  
Wind Speed 6 mph (NE)    
Max Wind Speed 12 mph    
Max Gust Speed 17 mph    
Visibility 9 miles    
Events Rain    
Averages and records for this station are not official NWS values.
T = Trace of Precipitation, MM = Missing Value Source: NWS Daily Summary

Daily Weather History Graph

Daily Weather History Graph

Search for Another Location

Airport or City:

Trip Planner

Search our weather history database for the weather conditions in past years. The results will help you decide how hot, cold, wet, or windy it might be!

Date:

Astronomy

Apr. 04, 2014 Rise Set
Actual Time 6:45 AM EDT 7:32 PM EDT
Civil Twilight 6:18 AM EDT 7:59 PM EDT
Nautical Twilight 5:46 AM EDT 8:31 PM EDT
Astronomical Twilight 5:12 AM EDT 9:05 PM EDT
Moon 10:01 AM EDT (4/4) No Moon Set
Length of Visible Light 13h 41m
Length of Day
12h 47m
Waxing Crescent, 25% of the Moon is Illuminated
Apr 4
Waxing Crescent
Apr 7
First Quarter
Apr 15
Full
Apr 22
Last Quarter
Apr 29
New

Hourly Weather History & Observations

Time (EDT) Temp. Windchill Dew Point Humidity Pressure Visibility Wind Dir Wind Speed Gust Speed Precip Events Conditions
12:18 AM 50.0 °F - 46.4 °F 87% 30.00 in 7.0 mi ENE 8.1 mph - N/A   Scattered Clouds
12:39 AM 50.0 °F - 46.4 °F 87% 29.99 in 7.0 mi ENE 5.8 mph - N/A   Scattered Clouds
12:57 AM 50.0 °F - 46.4 °F 87% 30.00 in 7.0 mi NE 6.9 mph - N/A   Clear
1:18 AM 48.2 °F - 44.6 °F 87% 30.00 in 7.0 mi NE 5.8 mph - N/A   Clear
1:39 AM 46.4 °F 42.9 °F 44.6 °F 93% 30.00 in 7.0 mi NE 6.9 mph - N/A Rain Light Rain
1:54 AM 46.4 °F 43.5 °F 42.8 °F 87% 30.00 in 10.0 mi ENE 5.8 mph - N/A   Overcast
2:18 AM 46.4 °F 44.3 °F 42.8 °F 87% 30.00 in 10.0 mi ENE 4.6 mph - N/A   Overcast
2:39 AM 46.4 °F 44.3 °F 42.8 °F 87% 29.99 in 10.0 mi NE 4.6 mph - N/A   Overcast
2:57 AM 46.4 °F 42.4 °F 41.0 °F 81% 29.98 in 10.0 mi NE 8.1 mph - N/A   Overcast
3:18 AM 46.4 °F 44.3 °F 41.0 °F 81% 29.97 in 10.0 mi NE 4.6 mph - N/A   Overcast
3:39 AM 46.4 °F 45.2 °F 39.2 °F 76% 29.98 in 10.0 mi NE 3.5 mph - N/A   Overcast
3:57 AM 46.4 °F 44.3 °F 39.2 °F 76% 29.97 in 10.0 mi NE 4.6 mph - N/A   Overcast
4:18 AM 46.4 °F 42.9 °F 39.2 °F 76% 29.96 in 10.0 mi NE 6.9 mph - N/A   Overcast
4:39 AM 46.4 °F 43.5 °F 39.2 °F 76% 29.95 in 10.0 mi NE 5.8 mph - N/A   Overcast
4:57 AM 46.4 °F 44.3 °F 39.2 °F 76% 29.96 in 10.0 mi NNE 4.6 mph - N/A   Overcast
5:18 AM 46.4 °F 45.2 °F 39.2 °F 76% 29.97 in 10.0 mi NNE 3.5 mph - N/A   Overcast
5:27 AM 46.4 °F 44.3 °F 37.4 °F 71% 29.97 in 10.0 mi NE 4.6 mph - N/A   Overcast
5:45 AM 48.2 °F - 35.6 °F 62% 29.97 in 10.0 mi NNE 6.9 mph - N/A   Mostly Cloudy
6:55 AM 48.2 °F - 39.2 °F 71% 29.97 in 10.0 mi ENE 10.4 mph 16.1 mph N/A   Overcast
8:50 AM 48.2 °F - 39.2 °F 71% 29.98 in 10.0 mi ENE 11.5 mph - N/A   Overcast
9:55 AM 50.0 °F - 42.8 °F 76% 29.95 in 10.0 mi NE 9.2 mph 17.3 mph N/A   Overcast
10:55 AM 50.0 °F - 42.8 °F 76% 29.94 in 10.0 mi NE 11.5 mph - N/A   Overcast
11:55 AM 51.8 °F - 42.8 °F 71% 29.95 in 10.0 mi NE 5.8 mph - N/A   Overcast
12:45 PM 53.6 °F - 44.6 °F 72% 29.92 in 10.0 mi ENE 9.2 mph - N/A   Overcast
1:55 PM 55.4 °F - 44.6 °F 67% 29.89 in 10.0 mi East 8.1 mph - N/A   Overcast
2:50 PM 53.6 °F - 46.4 °F 77% 29.85 in 10.0 mi East 9.2 mph - N/A   Overcast
4:20 PM 53.6 °F - 46.4 °F 77% 29.80 in 10.0 mi East 8.1 mph - N/A   Overcast
4:50 PM 53.6 °F - 48.2 °F 82% 29.79 in 10.0 mi East 8.1 mph - N/A   Overcast
5:45 PM 53.6 °F - 48.2 °F 82% 29.80 in 7.0 mi Calm Calm - N/A   Overcast
6:45 PM 51.8 °F - 48.2 °F 88% 29.75 in 7.0 mi ENE 5.8 mph - N/A   Overcast
9:45 PM 50.0 °F - 48.2 °F 94% 29.75 in 5.0 mi NNE 3.5 mph - N/A   Overcast
10:21 PM 50.0 °F - 46.4 °F 87% 29.79 in 5.0 mi WNW 9.2 mph - N/A   Overcast
10:39 PM 48.2 °F - 46.4 °F 93% 29.73 in 5.0 mi East 5.8 mph - N/A Rain Light Rain
11:00 PM 48.2 °F - 48.2 °F 100% 29.75 in 5.0 mi Calm Calm - N/A   Overcast
11:21 PM 48.2 °F - 48.2 °F 100% 29.75 in 5.0 mi Calm Calm - N/A   Overcast
11:42 PM 48.2 °F - 48.2 °F 100% 29.76 in 5.0 mi Calm Calm - N/A   Overcast